VOZ695 YMML-YPPH

Flight info

Callsign VOZ695
Flight time 3h 38m
Altitude 34000
Route CRENA Q158 KROWS/N0454F360 Q158 NODUR/N0448F380 Q158 MALUP/N0386F240 Q158 KABLI
Aircraft B738/M-SAE3DGHIM1RWZ/LB1

Departure

Time 2026-05-04 07:04
Airport Melbourne Airport (YMML)

Arrival

Time 2026-05-04 10:42
Airport Perth International Airport (YPPH)
Time Latitude Longitude Altitude Speed Heading
2026-05-04 06:16 -37.67079 144.84526 387 ft 0 kts 178°
2026-05-04 06:50 -37.67073 144.84526 387 ft 4 kts 180°
2026-05-04 06:51 -37.67046 144.84528 388 ft 4 kts 192°
2026-05-04 06:51 -37.67022 144.84540 389 ft 4 kts 224°
2026-05-04 06:51 -37.67014 144.84559 389 ft 0 kts 266°
2026-05-04 06:55 -37.67015 144.84546 389 ft 4 kts 264°
2026-05-04 06:55 -37.67018 144.84493 388 ft 8 kts 265°
2026-05-04 06:55 -37.67046 144.84409 386 ft 13 kts 258°
2026-05-04 06:55 -37.67065 144.84291 384 ft 14 kts 243°
2026-05-04 06:56 -37.67154 144.84260 382 ft 14 kts 171°
2026-05-04 06:57 -37.67835 144.84320 365 ft 20 kts 232°
2026-05-04 06:58 -37.67861 144.84220 359 ft 1 kts 262°
2026-05-04 06:58 -37.67861 144.84219 359 ft 0 kts 262°
2026-05-04 06:59 -37.67862 144.84206 359 ft 5 kts 262°
2026-05-04 06:59 -37.67866 144.84174 358 ft 6 kts 262°
2026-05-04 06:59 -37.67872 144.84124 360 ft 2 kts 261°
2026-05-04 07:01 -37.67849 144.83963 357 ft 0 kts 350°
2026-05-04 07:03 -37.67730 144.83940 363 ft 49 kts 351°
2026-05-04 07:03 -37.67171 144.83837 380 ft 111 kts 352°
2026-05-04 07:04 -37.66230 144.83661 436 ft 158 kts 352°
2026-05-04 07:04 -37.65131 144.83432 1183 ft 159 kts 349°
2026-05-04 07:04 -37.64125 144.83181 2235 ft 141 kts 335°
2026-05-04 07:04 -37.63398 144.82353 2882 ft 154 kts 306°
2026-05-04 07:05 -37.63161 144.80887 3111 ft 194 kts 267°
2026-05-04 07:05 -37.63499 144.79152 3366 ft 216 kts 265°
2026-05-04 07:05 -37.63853 144.77273 3902 ft 222 kts 264°
2026-05-04 07:05 -37.64220 144.75335 4334 ft 238 kts 263°
2026-05-04 07:06 -37.65070 144.70803 4773 ft 291 kts 262°
2026-05-04 07:06 -37.65313 144.68234 5302 ft 297 kts 276°
2026-05-04 07:06 -37.65165 144.65632 6124 ft 299 kts 278°
2026-05-04 07:07 -37.64983 144.63001 6899 ft 303 kts 278°
2026-05-04 07:08 -37.63673 144.43575 11982 ft 330 kts 276°
2026-05-04 07:09 -37.63483 144.40671 12654 ft 334 kts 276°
2026-05-04 07:09 -37.63291 144.37740 13344 ft 338 kts 276°
2026-05-04 07:09 -37.63096 144.34771 14007 ft 340 kts 276°
2026-05-04 07:09 -37.62899 144.31784 14640 ft 343 kts 276°
2026-05-04 07:10 -37.62701 144.28776 15251 ft 346 kts 276°
2026-05-04 07:10 -37.62498 144.25725 15826 ft 351 kts 276°
2026-05-04 07:12 -37.61008 144.03585 19704 ft 372 kts 276°
2026-05-04 07:12 -37.60787 144.00360 20189 ft 375 kts 276°
2026-05-04 07:12 -37.60561 143.97069 20670 ft 378 kts 276°
2026-05-04 07:12 -37.60332 143.93747 21122 ft 382 kts 276°
2026-05-04 07:13 -37.60101 143.90400 21611 ft 384 kts 276°
2026-05-04 07:13 -37.59866 143.87031 22071 ft 387 kts 276°
2026-05-04 07:13 -37.59629 143.83629 22518 ft 391 kts 276°
2026-05-04 07:14 -37.58651 143.69776 24133 ft 402 kts 276°
2026-05-04 07:14 -37.58400 143.66259 24507 ft 403 kts 276°
2026-05-04 07:15 -37.58148 143.62735 24877 ft 405 kts 276°
2026-05-04 07:15 -37.57893 143.59182 25216 ft 408 kts 276°
2026-05-04 07:15 -37.57638 143.55650 25562 ft 410 kts 276°
2026-05-04 07:15 -37.57378 143.52065 25903 ft 412 kts 276°
2026-05-04 07:16 -37.57115 143.48462 26228 ft 414 kts 276°
2026-05-04 07:16 -37.56850 143.44836 26545 ft 417 kts 276°
2026-05-04 07:16 -37.56582 143.41190 26852 ft 419 kts 276°
2026-05-04 07:16 -37.56312 143.37527 27158 ft 421 kts 276°
2026-05-04 07:17 -37.56039 143.33837 27456 ft 423 kts 276°
2026-05-04 07:17 -37.55763 143.30133 27749 ft 425 kts 276°
2026-05-04 07:17 -37.55486 143.26418 28039 ft 427 kts 276°
2026-05-04 07:17 -37.55205 143.22678 28318 ft 430 kts 276°
2026-05-04 07:18 -37.54922 143.18923 28584 ft 432 kts 276°
2026-05-04 07:18 -37.54637 143.15150 28873 ft 433 kts 276°
2026-05-04 07:18 -37.54353 143.11419 29246 ft 433 kts 276°
2026-05-04 07:18 -37.54067 143.07658 29673 ft 431 kts 276°
2026-05-04 07:19 -37.53779 143.03902 30050 ft 430 kts 276°
2026-05-04 07:19 -37.53490 143.00151 30338 ft 430 kts 276°
2026-05-04 07:19 -37.53200 142.96398 30663 ft 429 kts 276°
2026-05-04 07:19 -37.52911 142.92668 30984 ft 427 kts 276°
2026-05-04 07:20 -37.52621 142.88950 31313 ft 426 kts 276°
2026-05-04 07:20 -37.52330 142.85232 31605 ft 426 kts 276°
2026-05-04 07:20 -37.52038 142.81523 31878 ft 425 kts 276°
2026-05-04 07:20 -37.51746 142.77823 32172 ft 424 kts 276°
2026-05-04 07:22 -37.49680 142.52045 33901 ft 424 kts 276°
2026-05-04 07:22 -37.49382 142.48380 33906 ft 426 kts 276°
2026-05-04 07:23 -37.48772 142.40941 33901 ft 422 kts 276°
2026-05-04 07:23 -37.48171 142.33652 33909 ft 420 kts 276°
2026-05-04 07:24 -37.47563 142.26348 33913 ft 419 kts 276°
2026-05-04 07:24 -37.46952 142.19057 33917 ft 419 kts 276°
2026-05-04 07:26 -37.44445 141.89685 33929 ft 426 kts 275°
2026-05-04 07:27 -37.43799 141.82262 33929 ft 427 kts 275°
2026-05-04 07:27 -37.43148 141.74822 33928 ft 428 kts 275°
2026-05-04 07:28 -37.42490 141.67371 33940 ft 429 kts 275°
2026-05-04 07:28 -37.41828 141.59922 33943 ft 428 kts 274°
2026-05-04 07:29 -37.41166 141.52538 33943 ft 427 kts 274°
2026-05-04 07:29 -37.40498 141.45134 33939 ft 425 kts 274°
2026-05-04 07:30 -37.39828 141.37749 33947 ft 424 kts 274°
2026-05-04 07:30 -37.39155 141.30393 33949 ft 423 kts 274°
2026-05-04 07:31 -37.38479 141.23053 33945 ft 421 kts 273°
2026-05-04 07:33 -37.35752 140.93928 33958 ft 420 kts 272°
2026-05-04 07:33 -37.35058 140.86639 33965 ft 420 kts 272°
2026-05-04 07:34 -37.34358 140.79337 33967 ft 421 kts 272°
2026-05-04 07:34 -37.33652 140.72019 33970 ft 422 kts 272°
2026-05-04 07:35 -37.32941 140.64695 33969 ft 423 kts 272°
2026-05-04 07:35 -37.32224 140.57358 33972 ft 423 kts 272°
2026-05-04 07:36 -37.31505 140.50055 33976 ft 424 kts 272°
2026-05-04 07:38 -37.28563 140.20622 33979 ft 424 kts 272°
2026-05-04 07:38 -37.27818 140.13275 33981 ft 424 kts 272°
2026-05-04 07:39 -37.27044 140.05938 33979 ft 424 kts 274°
2026-05-04 07:39 -37.26010 139.98636 33990 ft 425 kts 276°
2026-05-04 07:40 -37.24906 139.91389 33989 ft 425 kts 275°
2026-05-04 07:40 -37.23814 139.84099 33985 ft 425 kts 275°
2026-05-04 07:41 -37.22741 139.76813 34000 ft 424 kts 275°
2026-05-04 07:41 -37.21671 139.69531 33994 ft 424 kts 275°
2026-05-04 07:42 -37.20599 139.62255 33999 ft 424 kts 275°
2026-05-04 07:42 -37.19522 139.54979 34002 ft 424 kts 275°
2026-05-04 07:43 -37.18441 139.47717 34004 ft 424 kts 275°
2026-05-04 07:43 -37.17363 139.40502 34003 ft 424 kts 275°
2026-05-04 07:44 -37.16274 139.33245 34008 ft 424 kts 275°
2026-05-04 07:44 -37.15179 139.25977 34008 ft 424 kts 275°
2026-05-04 07:45 -37.14080 139.18718 34008 ft 424 kts 275°
2026-05-04 07:45 -37.12976 139.11456 34014 ft 424 kts 275°
2026-05-04 07:46 -37.11876 139.04250 34019 ft 424 kts 275°
2026-05-04 07:46 -37.10763 138.96995 34019 ft 424 kts 275°
2026-05-04 07:47 -37.09647 138.89745 34019 ft 424 kts 275°
2026-05-04 07:49 -37.05323 138.61954 34025 ft 425 kts 275°
2026-05-04 07:49 -37.04182 138.54692 34030 ft 425 kts 275°
2026-05-04 07:50 -37.03036 138.47433 34035 ft 425 kts 275°
2026-05-04 07:50 -37.01885 138.40173 34039 ft 425 kts 276°
2026-05-04 07:51 -37.00729 138.32910 34031 ft 425 kts 276°
2026-05-04 07:51 -36.99570 138.25656 34040 ft 425 kts 276°
2026-05-04 07:52 -36.98415 138.18453 34045 ft 425 kts 276°
2026-05-04 07:52 -36.97244 138.11184 34038 ft 425 kts 276°
2026-05-04 07:54 -36.92529 137.82213 34058 ft 425 kts 276°
2026-05-04 07:55 -36.91340 137.74979 34058 ft 425 kts 276°
2026-05-04 07:55 -36.90154 137.67793 34059 ft 425 kts 276°
2026-05-04 07:56 -36.88956 137.60565 34063 ft 425 kts 277°
2026-05-04 07:56 -36.87752 137.53327 34068 ft 425 kts 277°
2026-05-04 07:57 -36.86545 137.46094 34069 ft 425 kts 277°
2026-05-04 07:57 -36.85334 137.38869 34069 ft 425 kts 277°
2026-05-04 07:58 -36.84117 137.31632 34069 ft 426 kts 277°
2026-05-04 07:58 -36.82894 137.24395 34079 ft 426 kts 277°
2026-05-04 07:59 -36.81661 137.17155 34075 ft 426 kts 277°
2026-05-04 07:59 -36.80430 137.09953 34074 ft 427 kts 277°
2026-05-04 08:00 -36.79186 137.02701 34082 ft 427 kts 277°
2026-05-04 08:02 -36.74171 136.73719 34086 ft 428 kts 277°
2026-05-04 08:02 -36.72903 136.66458 34094 ft 429 kts 277°
2026-05-04 08:03 -36.71628 136.59186 34094 ft 429 kts 277°
2026-05-04 08:03 -36.70349 136.51916 34098 ft 429 kts 277°
2026-05-04 08:04 -36.69064 136.44644 34099 ft 430 kts 278°
2026-05-04 08:04 -36.67774 136.37370 34103 ft 430 kts 278°
2026-05-04 08:05 -36.66487 136.30144 34101 ft 430 kts 278°
2026-05-04 08:05 -36.65186 136.22861 34102 ft 431 kts 278°
2026-05-04 08:06 -36.63879 136.15572 34109 ft 431 kts 278°
2026-05-04 08:06 -36.62567 136.08284 34121 ft 431 kts 278°
2026-05-04 08:08 -36.57271 135.79138 34114 ft 433 kts 278°
2026-05-04 08:11 -36.51203 135.46256 34128 ft 434 kts 278°
2026-05-04 08:11 -36.49155 135.35281 34125 ft 435 kts 278°
2026-05-04 08:12 -36.47792 135.28009 34130 ft 435 kts 278°
2026-05-04 08:12 -36.46417 135.20695 34136 ft 435 kts 278°
2026-05-04 08:13 -36.45036 135.13375 34134 ft 435 kts 278°
2026-05-04 08:13 -36.43651 135.06061 34138 ft 435 kts 278°
2026-05-04 08:14 -36.42266 134.98737 34141 ft 435 kts 278°
2026-05-04 08:16 -36.37915 134.69272 34145 ft 435 kts 276°
2026-05-04 08:16 -36.36804 134.61899 34153 ft 435 kts 276°
2026-05-04 08:17 -36.35686 134.54522 34149 ft 435 kts 276°
2026-05-04 08:17 -36.34562 134.47140 34146 ft 435 kts 276°
2026-05-04 08:19 -36.30028 134.17659 34152 ft 436 kts 276°
2026-05-04 08:20 -36.28878 134.10259 34166 ft 436 kts 276°
2026-05-04 08:20 -36.27725 134.02868 34167 ft 437 kts 277°
2026-05-04 08:21 -36.26567 133.95483 34164 ft 437 kts 277°
2026-05-04 08:21 -36.25404 133.88092 34173 ft 437 kts 277°
2026-05-04 08:22 -36.24236 133.80705 34175 ft 437 kts 277°
2026-05-04 08:24 -36.19527 133.51220 34180 ft 437 kts 277°
2026-05-04 08:24 -36.18336 133.43839 34178 ft 437 kts 277°
2026-05-04 08:25 -36.17143 133.36477 34183 ft 437 kts 277°
2026-05-04 08:25 -36.15944 133.29105 34181 ft 437 kts 277°
2026-05-04 08:27 -36.11105 132.99662 34192 ft 437 kts 277°
2026-05-04 08:28 -36.09881 132.92290 34191 ft 437 kts 278°
2026-05-04 08:28 -36.08650 132.84905 34190 ft 437 kts 278°
2026-05-04 08:29 -36.07425 132.77584 34194 ft 437 kts 278°
2026-05-04 08:31 -36.02457 132.48187 34198 ft 437 kts 278°
2026-05-04 08:33 -35.97412 132.18798 34206 ft 437 kts 278°
2026-05-04 08:35 -35.92302 131.89480 34213 ft 437 kts 278°
2026-05-04 08:35 -35.91230 131.83383 34213 ft 437 kts 278°
2026-05-04 08:37 -35.86681 131.57726 34221 ft 437 kts 279°
2026-05-04 08:38 -35.85372 131.50406 34218 ft 437 kts 279°
2026-05-04 08:38 -35.84056 131.43090 34222 ft 437 kts 279°
2026-05-04 08:40 -35.78741 131.13849 34230 ft 437 kts 279°
2026-05-04 08:41 -35.77411 131.06591 34225 ft 437 kts 279°
2026-05-04 08:41 -35.76069 130.99297 34231 ft 437 kts 279°
2026-05-04 08:42 -35.74722 130.92000 34232 ft 437 kts 279°
2026-05-04 08:42 -35.73372 130.84714 34237 ft 437 kts 279°
2026-05-04 08:43 -35.72017 130.77425 34239 ft 437 kts 279°
2026-05-04 08:43 -35.70648 130.70091 34239 ft 437 kts 279°
2026-05-04 08:44 -35.69294 130.62861 34235 ft 437 kts 279°
2026-05-04 08:46 -35.63797 130.33768 34245 ft 436 kts 280°
2026-05-04 08:46 -35.62413 130.26505 34246 ft 436 kts 280°
2026-05-04 08:47 -35.61023 130.19240 34249 ft 436 kts 280°
2026-05-04 08:47 -35.59630 130.11980 34253 ft 436 kts 280°
2026-05-04 08:48 -35.58233 130.04729 34253 ft 436 kts 280°
2026-05-04 08:48 -35.56831 129.97474 34256 ft 436 kts 280°
2026-05-04 08:49 -35.55434 129.90273 34253 ft 436 kts 281°
2026-05-04 08:50 -35.50480 129.64925 34268 ft 436 kts 281°
2026-05-04 08:51 -35.49054 129.57686 34270 ft 436 kts 281°
2026-05-04 08:51 -35.47625 129.50453 34256 ft 436 kts 281°
2026-05-04 08:52 -35.46190 129.43214 34270 ft 436 kts 281°
2026-05-04 08:52 -35.44752 129.35985 34275 ft 436 kts 281°
2026-05-04 08:54 -35.38968 129.07154 34267 ft 436 kts 282°
2026-05-04 08:55 -35.37509 128.99941 34280 ft 436 kts 282°
2026-05-04 08:55 -35.36047 128.92740 34274 ft 436 kts 282°
2026-05-04 09:01 -35.20457 128.17336 34290 ft 435 kts 282°
2026-05-04 09:01 -35.18951 128.10181 34292 ft 435 kts 282°
2026-05-04 09:02 -35.17439 128.03020 34287 ft 434 kts 282°
2026-05-04 09:02 -35.15935 127.95922 34296 ft 434 kts 282°
2026-05-04 09:03 -35.14411 127.88741 34301 ft 433 kts 282°
2026-05-04 09:03 -35.12906 127.81665 34292 ft 433 kts 282°
2026-05-04 09:04 -35.11389 127.74549 34294 ft 433 kts 282°
2026-05-04 09:04 -35.09865 127.67430 34294 ft 432 kts 282°
2026-05-04 09:05 -35.08340 127.60321 34296 ft 432 kts 282°
2026-05-04 09:05 -35.06813 127.53230 34295 ft 432 kts 282°
2026-05-04 09:06 -35.05284 127.46150 34296 ft 431 kts 282°
2026-05-04 09:08 -34.99138 127.17907 34299 ft 430 kts 282°
2026-05-04 09:08 -34.97591 127.10851 34305 ft 430 kts 282°
2026-05-04 09:09 -34.96052 127.03852 34305 ft 430 kts 282°
2026-05-04 09:09 -34.94498 126.96807 34305 ft 430 kts 282°
2026-05-04 09:10 -34.92939 126.89759 34307 ft 430 kts 282°
2026-05-04 09:10 -34.91377 126.82721 34306 ft 430 kts 282°
2026-05-04 09:11 -34.89810 126.75681 34305 ft 430 kts 282°
2026-05-04 09:11 -34.88240 126.68645 34304 ft 430 kts 282°
2026-05-04 09:12 -34.86665 126.61610 34309 ft 430 kts 282°
2026-05-04 09:14 -34.80331 126.33550 34318 ft 430 kts 282°
2026-05-04 09:14 -34.78728 126.26541 34319 ft 430 kts 282°
2026-05-04 09:15 -34.77126 126.19529 34318 ft 430 kts 282°
2026-05-04 09:15 -34.75527 126.12533 34325 ft 429 kts 282°
2026-05-04 09:17 -34.68324 125.81248 35980 ft 424 kts 282°
2026-05-04 09:18 -34.67525 125.77804 36226 ft 423 kts 282°
2026-05-04 09:18 -34.66727 125.74363 36316 ft 425 kts 282°
2026-05-04 09:18 -34.65113 125.67422 36318 ft 427 kts 282°
2026-05-04 09:19 -34.63492 125.60479 36472 ft 428 kts 282°
2026-05-04 09:19 -34.62690 125.57014 36740 ft 426 kts 282°
2026-05-04 09:19 -34.61889 125.53567 37038 ft 423 kts 282°
2026-05-04 09:20 -34.61358 125.51295 37228 ft 422 kts 282°
2026-05-04 09:20 -34.60554 125.47867 37443 ft 422 kts 282°
2026-05-04 09:20 -34.59750 125.44449 37627 ft 422 kts 282°
2026-05-04 09:20 -34.58943 125.41025 37824 ft 421 kts 282°
2026-05-04 09:21 -34.58139 125.37615 38048 ft 420 kts 282°
2026-05-04 09:21 -34.57333 125.34205 38254 ft 419 kts 282°
2026-05-04 09:21 -34.55456 125.26270 38329 ft 422 kts 282°
2026-05-04 09:22 -34.54103 125.20546 38270 ft 421 kts 282°
2026-05-04 09:22 -34.52498 125.13802 38319 ft 417 kts 282°
2026-05-04 09:23 -34.50888 125.07063 38327 ft 415 kts 282°
2026-05-04 09:23 -34.49286 125.00364 38331 ft 413 kts 282°
2026-05-04 09:25 -34.42836 124.73649 38339 ft 414 kts 282°
2026-05-04 09:26 -34.41209 124.66952 38340 ft 415 kts 282°
2026-05-04 09:26 -34.39571 124.60229 38341 ft 416 kts 282°
2026-05-04 09:27 -34.37928 124.53499 38338 ft 417 kts 282°
2026-05-04 09:27 -34.36278 124.46763 38344 ft 417 kts 283°
2026-05-04 09:28 -34.34635 124.40070 38341 ft 417 kts 282°
2026-05-04 09:28 -34.32978 124.33340 38345 ft 417 kts 282°
2026-05-04 09:29 -34.31320 124.26621 38343 ft 416 kts 283°
2026-05-04 09:29 -34.29662 124.19921 38344 ft 415 kts 283°
2026-05-04 09:30 -34.28004 124.13241 38343 ft 414 kts 283°
2026-05-04 09:30 -34.26349 124.06586 38343 ft 412 kts 283°
2026-05-04 09:31 -34.24696 123.99955 38351 ft 411 kts 283°
2026-05-04 09:31 -34.23044 123.93348 38346 ft 410 kts 283°
2026-05-04 09:32 -34.21394 123.86764 38347 ft 409 kts 283°
2026-05-04 09:34 -34.14805 123.60583 38354 ft 407 kts 282°
2026-05-04 09:34 -34.13146 123.54045 38351 ft 407 kts 282°
2026-05-04 09:35 -34.11485 123.47509 38355 ft 407 kts 282°
2026-05-04 09:35 -34.09818 123.40967 38353 ft 408 kts 282°
2026-05-04 09:37 -34.03087 123.14801 38355 ft 408 kts 283°
2026-05-04 09:38 -34.01410 123.08305 38358 ft 408 kts 283°
2026-05-04 09:38 -33.99719 123.01769 38357 ft 408 kts 283°
2026-05-04 09:39 -33.98025 122.95240 38360 ft 408 kts 283°
2026-05-04 09:39 -33.96330 122.88723 38359 ft 408 kts 283°
2026-05-04 09:40 -33.94631 122.82206 38360 ft 407 kts 283°
2026-05-04 09:40 -33.92932 122.75704 38362 ft 407 kts 283°
2026-05-04 09:42 -33.86120 122.49796 38367 ft 405 kts 283°
2026-05-04 09:43 -33.84423 122.43378 38364 ft 405 kts 283°
2026-05-04 09:43 -33.82714 122.36931 38366 ft 405 kts 283°
2026-05-04 09:44 -33.81001 122.30485 38366 ft 404 kts 283°
2026-05-04 09:46 -33.74122 122.04744 38381 ft 404 kts 284°
2026-05-04 09:46 -33.72391 121.98306 38376 ft 404 kts 284°
2026-05-04 09:47 -33.70660 121.91881 38361 ft 405 kts 284°
2026-05-04 09:49 -33.63362 121.66339 38376 ft 405 kts 285°
2026-05-04 09:51 -33.56721 121.44059 38369 ft 405 kts 286°
2026-05-04 09:51 -33.54821 121.37699 38371 ft 405 kts 286°
2026-05-04 09:52 -33.52928 121.31380 38372 ft 405 kts 286°
2026-05-04 09:52 -33.51021 121.25028 38367 ft 405 kts 286°
2026-05-04 09:53 -33.49111 121.18676 38373 ft 405 kts 286°
2026-05-04 09:53 -33.47197 121.12330 38370 ft 405 kts 286°
2026-05-04 09:54 -33.45282 121.05989 38370 ft 405 kts 286°
2026-05-04 09:54 -33.43361 120.99643 38373 ft 405 kts 286°
2026-05-04 09:55 -33.41438 120.93305 38371 ft 405 kts 287°
2026-05-04 09:55 -33.39509 120.86960 38376 ft 405 kts 287°
2026-05-04 09:56 -33.37591 120.80664 38371 ft 405 kts 287°
2026-05-04 09:56 -33.35654 120.74321 38373 ft 405 kts 287°
2026-05-04 09:57 -33.33717 120.67990 38373 ft 405 kts 287°
2026-05-04 09:57 -33.31773 120.61650 38369 ft 405 kts 287°
2026-05-04 09:58 -33.29830 120.55327 38377 ft 405 kts 287°
2026-05-04 09:58 -33.27884 120.49003 38375 ft 405 kts 287°
2026-05-04 10:00 -33.20068 120.23750 38376 ft 405 kts 287°
2026-05-04 10:04 -33.06296 119.79750 38363 ft 407 kts 288°
2026-05-04 10:04 -33.04302 119.73432 38363 ft 407 kts 288°
2026-05-04 10:05 -33.02304 119.67111 38360 ft 408 kts 288°
2026-05-04 10:05 -33.00298 119.60778 38360 ft 408 kts 288°
2026-05-04 10:06 -32.98287 119.54447 38364 ft 409 kts 288°
2026-05-04 10:06 -32.96609 119.49178 38361 ft 409 kts 288°
2026-05-04 10:08 -32.89502 119.26953 38354 ft 410 kts 288°
2026-05-04 10:08 -32.87463 119.20605 38369 ft 411 kts 288°
2026-05-04 10:09 -32.85435 119.14300 38355 ft 411 kts 288°
2026-05-04 10:09 -32.83389 119.07955 38368 ft 411 kts 288°
2026-05-04 10:10 -32.81337 119.01605 38362 ft 412 kts 288°
2026-05-04 10:10 -32.79280 118.95251 38364 ft 412 kts 289°
2026-05-04 10:11 -32.77218 118.88893 38365 ft 412 kts 289°
2026-05-04 10:11 -32.75148 118.82527 38362 ft 413 kts 289°
2026-05-04 10:12 -32.73079 118.76172 38360 ft 413 kts 289°
2026-05-04 10:12 -32.70998 118.69797 38366 ft 413 kts 289°
2026-05-04 10:13 -32.68915 118.63428 38359 ft 414 kts 289°
2026-05-04 10:13 -32.66825 118.57048 38094 ft 419 kts 289°
2026-05-04 10:14 -32.65778 118.53854 37632 ft 420 kts 289°
2026-05-04 10:14 -32.64719 118.50632 37079 ft 417 kts 289°
2026-05-04 10:16 -32.57515 118.28795 34076 ft 395 kts 289°
2026-05-04 10:16 -32.56526 118.25810 33644 ft 392 kts 289°
2026-05-04 10:16 -32.55532 118.22811 33217 ft 389 kts 289°
2026-05-04 10:16 -32.54545 118.19834 32814 ft 386 kts 289°
2026-05-04 10:17 -32.53565 118.16882 32411 ft 383 kts 289°
2026-05-04 10:17 -32.52590 118.13948 32029 ft 381 kts 289°
2026-05-04 10:19 -32.45910 117.93916 29196 ft 366 kts 289°
2026-05-04 10:19 -32.44976 117.91125 28795 ft 363 kts 288°
2026-05-04 10:19 -32.44048 117.88355 28400 ft 361 kts 288°
2026-05-04 10:19 -32.43124 117.85600 28008 ft 359 kts 288°
2026-05-04 10:20 -32.42207 117.82865 27627 ft 356 kts 288°
2026-05-04 10:20 -32.41294 117.80147 27242 ft 355 kts 288°
2026-05-04 10:20 -32.40386 117.77443 26864 ft 353 kts 288°
2026-05-04 10:20 -32.39479 117.74745 26480 ft 352 kts 288°
2026-05-04 10:21 -32.38577 117.72062 26104 ft 350 kts 288°
2026-05-04 10:21 -32.37678 117.69393 25729 ft 349 kts 288°
2026-05-04 10:21 -32.36780 117.66730 25347 ft 348 kts 288°
2026-05-04 10:21 -32.35962 117.64036 24812 ft 350 kts 283°
2026-05-04 10:22 -32.34594 117.58365 23579 ft 362 kts 282°
2026-05-04 10:22 -32.33933 117.55501 23072 ft 362 kts 282°
2026-05-04 10:22 -32.33276 117.52675 22653 ft 360 kts 282°
2026-05-04 10:23 -32.32606 117.49830 22249 ft 358 kts 282°
2026-05-04 10:23 -32.31934 117.46999 21859 ft 356 kts 282°
2026-05-04 10:25 -32.27285 117.27693 19264 ft 344 kts 283°
2026-05-04 10:25 -32.26628 117.24975 18893 ft 343 kts 283°
2026-05-04 10:25 -32.25971 117.22267 18503 ft 343 kts 283°
2026-05-04 10:25 -32.25314 117.19556 18107 ft 342 kts 283°
2026-05-04 10:26 -32.24660 117.16866 17727 ft 340 kts 283°
2026-05-04 10:26 -32.24009 117.14188 17359 ft 338 kts 283°
2026-05-04 10:26 -32.23361 117.11528 16992 ft 336 kts 283°
2026-05-04 10:26 -32.22716 117.08882 16635 ft 335 kts 283°
2026-05-04 10:27 -32.22073 117.06242 16282 ft 333 kts 283°
2026-05-04 10:27 -32.21433 117.03620 15919 ft 332 kts 283°
2026-05-04 10:27 -32.20794 117.01005 15564 ft 331 kts 283°
2026-05-04 10:27 -32.20158 116.98402 15210 ft 330 kts 284°
2026-05-04 10:28 -32.19522 116.95799 14846 ft 329 kts 284°
2026-05-04 10:28 -32.18894 116.93238 14488 ft 329 kts 284°
2026-05-04 10:28 -32.18238 116.90651 14123 ft 329 kts 288°
2026-05-04 10:28 -32.17114 116.88278 13574 ft 336 kts 306°
2026-05-04 10:29 -32.15671 116.86111 13140 ft 336 kts 308°
2026-05-04 10:29 -32.14200 116.83974 12768 ft 334 kts 308°
2026-05-04 10:29 -32.12742 116.81848 12410 ft 333 kts 308°
2026-05-04 10:29 -32.11296 116.79718 12050 ft 331 kts 308°
2026-05-04 10:30 -32.09868 116.77594 11680 ft 329 kts 308°
2026-05-04 10:30 -32.08455 116.75481 11351 ft 327 kts 308°
2026-05-04 10:30 -32.07051 116.73375 11009 ft 326 kts 308°
2026-05-04 10:30 -32.05652 116.71274 10681 ft 324 kts 308°
2026-05-04 10:31 -32.04281 116.69217 10552 ft 315 kts 308°
2026-05-04 10:31 -32.02942 116.67209 10397 ft 308 kts 308°
2026-05-04 10:32 -31.94987 116.55279 8154 ft 309 kts 309°
2026-05-04 10:33 -31.93739 116.53232 7840 ft 307 kts 303°
2026-05-04 10:33 -31.92645 116.51089 7525 ft 302 kts 301°
2026-05-04 10:33 -31.91607 116.48976 7211 ft 293 kts 301°
2026-05-04 10:33 -31.90611 116.46958 6932 ft 285 kts 301°
2026-05-04 10:34 -31.89605 116.44952 6637 ft 278 kts 302°
2026-05-04 10:34 -31.88616 116.43005 6354 ft 277 kts 302°
2026-05-04 10:34 -31.87627 116.41072 6064 ft 275 kts 302°
2026-05-04 10:34 -31.86650 116.39168 5785 ft 275 kts 302°
2026-05-04 10:35 -31.85654 116.37226 5489 ft 274 kts 301°
2026-05-04 10:35 -31.84685 116.35338 5264 ft 272 kts 301°
2026-05-04 10:35 -31.83723 116.33464 5130 ft 264 kts 302°
2026-05-04 10:35 -31.82888 116.31838 4947 ft 261 kts 302°
2026-05-04 10:36 -31.81947 116.30007 4667 ft 260 kts 302°
2026-05-04 10:36 -31.81024 116.28213 4404 ft 254 kts 302°
2026-05-04 10:36 -31.80141 116.26450 4136 ft 247 kts 294°
2026-05-04 10:36 -31.79912 116.24536 3911 ft 233 kts 255°
2026-05-04 10:37 -31.80490 116.22825 3785 ft 221 kts 242°
2026-05-04 10:37 -31.81157 116.21252 3602 ft 213 kts 239°
2026-05-04 10:37 -31.81869 116.19765 3415 ft 205 kts 237°
2026-05-04 10:37 -31.82587 116.18338 3234 ft 199 kts 236°
2026-05-04 10:39 -31.86623 116.10462 2483 ft 185 kts 236°
2026-05-04 10:39 -31.87294 116.09158 2238 ft 187 kts 235°
2026-05-04 10:39 -31.87946 116.07888 2028 ft 173 kts 235°
2026-05-04 10:40 -31.88536 116.06736 1779 ft 162 kts 235°
2026-05-04 10:40 -31.89115 116.05609 1579 ft 160 kts 235°
2026-05-04 10:40 -31.89681 116.04510 1375 ft 155 kts 236°
2026-05-04 10:40 -31.90235 116.03430 1167 ft 152 kts 237°
2026-05-04 10:41 -31.90777 116.02377 969 ft 150 kts 237°
2026-05-04 10:41 -31.91307 116.01342 778 ft 145 kts 237°
2026-05-04 10:41 -31.91838 116.00325 601 ft 147 kts 236°
2026-05-04 10:41 -31.92359 115.99293 404 ft 147 kts 237°
2026-05-04 10:42 -31.92898 115.98242 207 ft 149 kts 236°
2026-05-04 10:42 -31.93415 115.97254 68 ft 132 kts 237°
2026-05-04 10:42 -31.93779 115.96543 66 ft 70 kts 239°
2026-05-04 10:42 -31.93949 115.96294 66 ft 28 kts 199°
2026-05-04 10:43 -31.94124 115.96242 63 ft 25 kts 194°
2026-05-04 10:44 -31.94224 115.96802 63 ft 19 kts 15°
2026-05-04 10:45 -31.94199 115.96900 67 ft 11 kts 103°
2026-05-04 10:45 -31.94215 115.96980 64 ft 9 kts 104°
2026-05-04 10:45 -31.94210 115.97037 60 ft 5 kts 43°
2026-05-04 10:45 -31.94191 115.97047 65 ft 1 kts 16°
2026-05-04 10:46 -31.94171 115.97053 64 ft 3 kts 14°
2026-05-04 10:46 -31.94165 115.97055 64 ft 0 kts 14°